Regional Weather Roundup
Issued by NWS Charleston, SC

Current Version | Previous Version | Graphics & Text | Print | Product List | Glossary On
Versions: 1 2 3 4 5 6 7 8 9 10 11 12 13 14 15 16 17 18 19 20 21 22 23 24 25 26 27 28 29 30 31 32 33 34 35 36 37 38 39 40 41 42 43 44 45 46 47 48 49 50
000
ASUS42 KCHS 142210
RWRCHS
REGIONAL WEATHER ROUNDUP
NATIONAL WEATHER SERVICE CHARLESTON SC
600 PM EDT SUN SEP 14 2014

NOTE: "FAIR" INDICATES FEW OR NO CLOUDS BELOW 12,000 FEET WITH NO
SIGNIFICANT WEATHER AND/OR OBSTRUCTIONS TO VISIBILITY.

NOT ALL STATIONS ARE QUALITY CONTROLLED BY THE NATIONAL
WEATHER SERVICE. USE DATA WITH CAUTION...ESPECIALLY
DEWPOINT OBSERVATIONS.

SCZ027-030-031-034>040-042>050-142300-
...SOUTH CAROLINA...

CITY           SKY/WX    TMP DP  RH WIND       PRES   REMARKS
N CHARLESTON   LGT RAIN  79  74  84 NE8       30.14S
WATERFRONT PRK   N/A     82 N/A N/A E15         N/A
FORT JOHNSON   NOT AVBL
MOUNT PLEASANT LGT RAIN  79  75  89 NE3       30.14S
JOHNS ISLAND   PTCLDY    81  79  94 E9        30.13S
PINOPOLIS        N/A     75  72  88 E7        30.09R
MONCKS CORNER    N/A     75  73  94 NE6       30.15S
SUMMERVILLE    CLOUDY    75  72  88 N8        30.16R
BEAUFORT MCAS  PTSUNNY   83  76  79 N9        30.12S THUNDER HX  91
BEAUFORT ARPT  DRIZZLE   81  77  89 E5        30.12S
HILTON HEAD IS PTSUNNY   82  75  78 CALM      30.14R
GEORGETOWN     NOT AVBL
WALTERBORO     CLOUDY    79  79 100 NE8       30.15R
ORANGEBURG     CLOUDY    75  68  78 NE10      30.16S
BARNWELL       CLOUDY    75  72  88 N9        30.16R
AIKEN          CLOUDY    73  72  94 N8        30.20S
MANNING        CLOUDY    73  73 100 NE5       30.17S
KINGSTREE      NOT AVBL
COLUMBIA       CLOUDY    75  64  68 N9        30.17S
SUMTER         NOT AVBL
FLORENCE       CLOUDY    72  64  76 NE7       30.18F
MYRTLE BEACH   CLOUDY    75  66  73 N7        30.16F
N MYRTLE BEACH CLOUDY    73  67  81 N8        30.16S

$$

GAZ063-065-086>088-099>101-113>116-118-119-134-136>141-150-142300-
...GEORGIA...

CITY           SKY/WX    TMP DP  RH WIND       PRES   REMARKS
SAVANNAH ARPT  PTSUNNY   85  73  67 E10       30.11R HX  91
HUNTER AAF     NOT AVBL
FORT STEWART   NOT AVBL
STATESBORO     NOT AVBL
SYLVANIA       MOCLDY    84  80  88 CALM      30.13R HX  97
CLAXTON        NOT AVBL
THOMSON        CLOUDY    73  72  94 NE7       30.21S
AUGUSTA-BUSH   CLOUDY    74  69  85 N7        30.15S
AUGUSTA-DANIEL CLOUDY    73  68  84 N8        30.17S
SWAINSBORO     CLOUDY    82  79  89 N6        30.14R THUNDER HX  93
VIDALIA        TSTM      72  72 100 N5        30.13S
ALMA           CLOUDY    84  73  69 NE6       30.09R HX  90
WAYCROSS       CLOUDY    91  77  64 E10       30.08S HX 104
JESUP            N/A     84  77  79 CALM      30.11S HX  94
BRUNSWICK      PTSUNNY   84  72  65 E5        30.12S
SAINT SIMONS   PTSUNNY   82  72  71 E10       30.11R

$$

SCZ027-028-034-036>038-045-046-048>050-GAZ119-141-142300-
...LAKE AND SUPPLEMENTAL COASTAL OBSERVATIONS...

STATION/POSITION TIME  TEMP    WIND        PRES    WAVE   SWELL
                       AIR SEA DIR/SP/G            HT/PER HT/PER/DIR
                 (UTC) (F)     (DEG/KT/KT) (MB)    (FT/S) (FT/S/D)
UPR LAKE MARION  NOT AVBL
WINYAH BAY       2100   75      10/  4     1021.0S
LAKE MURRAY      2100   72      20/  2/  5 1021.7R
ACE BASIN NERRS  2100   82     120/  3     1020.0S
FORT PULASKI     2200   83     110/  7/ 11 1020.3S
SAPELO ISLAND    2100   88     110/  8     1020.0F

$$

ANZ835-935-AMZ111-154-330-350-352-354-374-450-454-472-142300-
...C-MAN AND BUOY OBSERVATIONS...

STATION/POSITION TIME  TEMP    WIND        PRES    WAVE   SWELL
                       AIR SEA DIR/SP/G            HT/PER HT/PER/DIR
                 (UTC) (F)     (DEG/KT/KT) (MB)    (FT/S) (FT/S/D)
FOLLY BEACH CMAN 2100   81      80/ 12/ 14 1020.7F
BUOY 41004       2200   80 83   80/  4/  6 1020.0F   2/ 4   2/ 5
BUOY 41008       2200   82 85  110/ 12/ 14 1019.9F   1/ 5
5E ST. MARYS GA  2200      85                N/A     2/ 4
FRYING PAN BUOY  NOT AVBL
BUOY 41025       2200   74     360/ 17/ 21 1021.2R   4/ 8   2/ 30/ 8
CAPE LOOKOUT NC  2100   75      30/ 12/ 16 1021.4S
BUOY 41002       2053   79 83  250/  4/  6 1020.5F   2/ 4   2/250/ 4
BUOY 41010       2200   84 86  130/ 10/ 12 1020.3S   2/ 5   2/210/ 5
BUOY 41012       NOT AVBL
ST AUGUSTINE FL  2200   83     120/ 10/ 11 1020.1F
CAPERS NEARSHORE 2100   79      80/ 16/ 17   N/A
FRIPP NEARSHORE  NOT AVBL


$$



USA.gov is the U.S. government's official web portal to all federal, state and local government web resources and services.